Volver al catálogo

NOAA 16 DEB

ActivoSSO
NORAD 41144·DEBRIS·🇺🇸 United States

Lanzado Sep 21, 2000 desde Vandenberg Space Force Base

Loading…

Próximos Pases (próximas 24 horas)

TLE

ActualizadoSource: Space-Track

Época: Sep 13, 2026, 21:06 UTC

1 41144U 00055CB  26256.87923559  .00002265  00000-0  87533-3 0  9997
2 41144  98.6012 305.2747 0026652 226.6627 133.2335 14.30922951558354

Sigue NOAA 16 DEB en tiempo real con AllMySat

Download on the App Store